Capitol Logistics 447


KSLC
Salt Lake City International Airport
Salt Lake City, Utah, US
KMSP
Minneapolis-St Paul International Airport
Minneapolis, Minnesota, US

Activity Log

Date Flight Route Aircraft Duration
No Flights Yet

Route Details

Aircraft Information
Primary: Boeing 757-200SF
Backup: Boeing 737-800BCF
Route Data
Distance: 860nm
Sched. Duration: 2h 29m
Avg. Duration: 0h 00m (-230m)
Times Flown: 0
Recm'd Route: RUGGD1 OCS CKW MBW BFF ANW SSWAN TORGY3
Planned Altitude: 35,000ft
Origin Wx: KSLC 151854Z 27005KT 10SM FEW150 29/03 A3009 RMK AO2 SLP131 T02890028
Dest. Wx: KMSP 151853Z 17004KT 10SM FEW050 SCT160 BKN220 BKN250 25/10 A3002 RMK AO2 SLP162 T02500100
Notes:

Financial History
Total Freight: 0lbs
Average Load: 0lbs/flt
Fuel Used: 0lbs
Avg. Fuel Used: 0lbs/flt
Fuel Expense: $0
Avg. Fuel Expense: $0
Avg. Fuel Cost: $0/lbs
Total Gross Income: $0
Pilot Pay: $0
Total Expenses: $0
Total Revenue: $0
Average Revenue: $0